• In Russia
  • List of Countries
  • For 7 days
  • Water Temperature
  • Satellite Maps
  • Weather Map
  • Weather Widgets
  • user-avatar
    Login

    Hourly Weather Sydney

    Today, 20 August, Sunday

    Time Temperature Precipitation Wind Pressure Humidity
    00:00 +6°C° 0.1 mm 8 mps 765 mmHg 52%
    01:00 +5°C° 0.1 mm 8 mps 765 mmHg 51%
    02:00 +5°C° 0.1 mm 8 mps 766 mmHg 51%
    03:00 +4°C° 0.1 mm 8 mps 766 mmHg 50%
    04:00 +4°C° 0 mm 6 mps 766 mmHg 51%
    05:00 +3°C° 0.1 mm 6 mps 766 mmHg 50%
    06:00 +3°C° 0.1 mm 6 mps 766 mmHg 50%
    07:00 +3°C° 0.1 mm 7 mps 767 mmHg 49%
    08:00 +6°C° 0.1 mm 7 mps 767 mmHg 46%
    09:00 +10°C° 0.1 mm 6 mps 766 mmHg 42%
    10:00 +13°C° 0.1 mm 6 mps 766 mmHg 39%
    11:00 +15°C° 0.1 mm 6 mps 766 mmHg 39%
    12:00 +16°C° 0.1 mm 6 mps 765 mmHg 39%
    13:00 +17°C° 0.1 mm 6 mps 765 mmHg 39%
    14:00 +17°C° 0.1 mm 5 mps 765 mmHg 42%
    15:00 +17°C° 0.1 mm 5 mps 765 mmHg 44%
    16:00 +16°C° 0.1 mm 5 mps 764 mmHg 47%
    17:00 +14°C° 0 mm 4 mps 765 mmHg 57%
    18:00 +13°C° 0 mm 4 mps 765 mmHg 68%
    19:00 +11°C° 0 mm 3 mps 765 mmHg 78%
    20:00 +10°C° 0 mm 3 mps 765 mmHg 82%
    21:00 +10°C° 0 mm 2 mps 765 mmHg 86%
    22:00 +9°C° 0 mm 2 mps 765 mmHg 90%
    23:00 +9°C° 0 mm 2 mps 765 mmHg 90%

    Tomorrow, 21 August, Monday

    Time Temperature Precipitation Wind Pressure Humidity
    00:00 +8°C° 0 mm 2 mps 765 mmHg 91%
    01:00 +8°C° 0 mm 2 mps 765 mmHg 92%
    02:00 +8°C° 0 mm 2 mps 764 mmHg 92%
    03:00 +8°C° 0 mm 2 mps 764 mmHg 91%
    04:00 +8°C° 0 mm 2 mps 764 mmHg 91%
    05:00 +8°C° 0 mm 2 mps 764 mmHg 89%
    06:00 +8°C° 0 mm 2 mps 764 mmHg 87%
    07:00 +9°C° 0 mm 2 mps 764 mmHg 85%
    08:00 +12°C° 0 mm 2 mps 764 mmHg 74%
    09:00 +13°C° 0 mm 3 mps 764 mmHg 63%
    10:00 +16°C° 0 mm 3 mps 763 mmHg 53%
    11:00 +17°C° 0 mm 4 mps 763 mmHg 49%
    12:00 +16°C° 0 mm 5 mps 762 mmHg 45%
    13:00 +17°C° 0 mm 5 mps 762 mmHg 41%
    14:00 +17°C° 0 mm 5 mps 761 mmHg 39%
    15:00 +17°C° 0 mm 5 mps 761 mmHg 36%
    16:00 +19°C° 0 mm 4 mps 760 mmHg 34%
    17:00 +17°C° 0 mm 4 mps 761 mmHg 39%
    18:00 +15°C° 0 mm 4 mps 761 mmHg 44%
    19:00 +13°C° 0 mm 3 mps 762 mmHg 50%
    20:00 +13°C° 0.1 mm 3 mps 762 mmHg 54%
    21:00 +12°C° 0.1 mm 3 mps 762 mmHg 59%
    22:00 +11°C° 0.1 mm 3 mps 762 mmHg 64%
    23:00 +12°C° 0 mm 2 mps 762 mmHg 66%

    Day after tomorrow, 22 August, Tuesday

    Time Temperature Precipitation Wind Pressure Humidity
    00:00 +10°C° 0 mm 2 mps 762 mmHg 67%
    01:00 +10°C° 0 mm 2 mps 762 mmHg 69%
    02:00 +9°C° 0 mm 2 mps 762 mmHg 71%
    03:00 +8°C° 0 mm 2 mps 761 mmHg 73%
    04:00 +7°C° 0 mm 2 mps 761 mmHg 75%
    05:00 +8°C° 0 mm 2 mps 762 mmHg 73%
    06:00 +8°C° 0 mm 2 mps 762 mmHg 72%
    07:00 +9°C° 0 mm 1 mps 763 mmHg 71%
    08:00 +12°C° 0 mm 1 mps 763 mmHg 60%
    09:00 +15°C° 0 mm 1 mps 763 mmHg 49%
    10:00 +19°C° 0 mm 1 mps 763 mmHg 38%
    11:00 +19°C° 0 mm 2 mps 763 mmHg 35%
    12:00 +21°C° 0 mm 2 mps 762 mmHg 33%
    13:00 +23°C° 0 mm 2 mps 762 mmHg 30%
    14:00 +21°C° 0 mm 2 mps 762 mmHg 32%
    15:00 +20°C° 0 mm 3 mps 762 mmHg 35%
    16:00 +20°C° 0 mm 3 mps 762 mmHg 37%
    17:00 +18°C° 0 mm 3 mps 763 mmHg 48%
    18:00 +14°C° 0 mm 3 mps 764 mmHg 59%
    19:00 +13°C° 0 mm 2 mps 764 mmHg 70%
    20:00 +13°C° 0 mm 2 mps 765 mmHg 73%
    21:00 +12°C° 0 mm 1 mps 765 mmHg 76%
    22:00 +11°C° 0 mm 1 mps 765 mmHg 79%
    23:00 +11°C° 0 mm 1 mps 765 mmHg 81%

    23 August, Wednesday

    Time Temperature Precipitation Wind Pressure Humidity
    00:00 +11°C° 0 mm 1 mps 765 mmHg 82%
    01:00 +10°C° 0 mm 1 mps 765 mmHg 84%
    02:00 +10°C° 0 mm 1 mps 765 mmHg 84%
    03:00 +10°C° 0 mm 1 mps 765 mmHg 85%
    04:00 +9°C° 0 mm 1 mps 765 mmHg 85%
    05:00 +9°C° 0 mm 1 mps 765 mmHg 84%
    06:00 +9°C° 0 mm 1 mps 765 mmHg 82%
    07:00 +9°C° 0 mm 1 mps 766 mmHg 81%
    08:00 +13°C° 0 mm 1 mps 765 mmHg 69%
    09:00 +16°C° 0 mm 1 mps 765 mmHg 57%
    10:00 +20°C° 0 mm 1 mps 765 mmHg 45%
    11:00 +22°C° 0 mm 1 mps 764 mmHg 40%
    12:00 +24°C° 0 mm 2 mps 764 mmHg 35%
    13:00 +25°C° 0 mm 2 mps 763 mmHg 30%
    14:00 +25°C° 0 mm 2 mps 763 mmHg 32%
    15:00 +24°C° 0 mm 3 mps 762 mmHg 34%
    16:00 +22°C° 0 mm 4 mps 762 mmHg 35%
    17:00 +20°C° 0 mm 3 mps 763 mmHg 47%
    18:00 +18°C° 0 mm 3 mps 763 mmHg 58%
    19:00 +14°C° 0 mm 3 mps 763 mmHg 70%
    20:00 +14°C° 0.1 mm 3 mps 764 mmHg 68%
    21:00 +13°C° 0.1 mm 3 mps 764 mmHg 67%
    22:00 +13°C° 0.1 mm 4 mps 764 mmHg 66%
    23:00 +12°C° 0 mm 4 mps 764 mmHg 67%

    24 August, Thursday

    Time Temperature Precipitation Wind Pressure Humidity
    00:00 +12°C° 0 mm 4 mps 764 mmHg 68%
    01:00 +10°C° 0 mm 5 mps 763 mmHg 69%
    02:00 +9°C° 0 mm 5 mps 763 mmHg 71%
    03:00 +10°C° 0 mm 4 mps 763 mmHg 72%
    04:00 +8°C° 0 mm 4 mps 763 mmHg 74%
    05:00 +8°C° 0 mm 4 mps 763 mmHg 74%
    06:00 +8°C° 0 mm 4 mps 764 mmHg 73%
    07:00 +8°C° 0 mm 4 mps 764 mmHg 73%
    08:00 +12°C° 0 mm 5 mps 764 mmHg 64%
    09:00 +15°C° 0 mm 5 mps 764 mmHg 55%
    10:00 +17°C° 0 mm 5 mps 764 mmHg 46%
    11:00 +19°C° 0.1 mm 6 mps 764 mmHg 46%
    12:00 +20°C° 0.1 mm 6 mps 763 mmHg 45%
    13:00 +20°C° 0.1 mm 7 mps 763 mmHg 45%
    14:00 +18°C° 0.2 mm 7 mps 763 mmHg 51%
    15:00 +17°C° 0.2 mm 7 mps 763 mmHg 58%
    16:00 +16°C° 0.2 mm 7 mps 763 mmHg 64%
    17:00 +15°C° 0.1 mm 6 mps 764 mmHg 68%
    18:00 +14°C° 0.1 mm 6 mps 765 mmHg 72%
    19:00 +13°C° 0.1 mm 5 mps 765 mmHg 75%
    20:00 +13°C° 0.2 mm 5 mps 765 mmHg 75%
    21:00 +13°C° 0.2 mm 5 mps 766 mmHg 75%
    22:00 +13°C° 0.2 mm 5 mps 766 mmHg 75%
    23:00 +12°C° 0.1 mm 5 mps 766 mmHg 79%

    25 August, Friday

    Time Temperature Precipitation Wind Pressure Humidity
    00:00 +10°C° 0.1 mm 5 mps 765 mmHg 82%
    01:00 +9°C° 0.1 mm 5 mps 765 mmHg 85%
    02:00 +9°C° 0.1 mm 5 mps 765 mmHg 86%
    03:00 +9°C° 0.1 mm 5 mps 765 mmHg 87%
    04:00 +8°C° 0.1 mm 5 mps 765 mmHg 88%
    05:00 +8°C° 0.1 mm 5 mps 766 mmHg 87%
    06:00 +8°C° 0.1 mm 5 mps 766 mmHg 86%
    07:00 +8°C° 0.1 mm 5 mps 766 mmHg 85%
    08:00 +10°C° 0.2 mm 5 mps 766 mmHg 74%
    09:00 +13°C° 0.2 mm 5 mps 766 mmHg 64%
    10:00 +16°C° 0.2 mm 5 mps 766 mmHg 53%
    11:00 +17°C° 0.1 mm 5 mps 765 mmHg 48%
    12:00 +19°C° 0.1 mm 5 mps 765 mmHg 43%
    13:00 +20°C° 0.1 mm 5 mps 764 mmHg 38%
    14:00 +20°C° 0 mm 4 mps 764 mmHg 40%
    15:00 +19°C° 0 mm 4 mps 764 mmHg 42%
    16:00 +19°C° 0 mm 4 mps 764 mmHg 44%
    17:00 +17°C° 0 mm 4 mps 764 mmHg 54%
    18:00 +14°C° 0 mm 3 mps 765 mmHg 63%
    19:00 +13°C° 0 mm 3 mps 765 mmHg 73%
    20:00 +13°C° 0 mm 2 mps 765 mmHg 77%
    21:00 +13°C° 0 mm 2 mps 765 mmHg 80%
    22:00 +12°C° 0 mm 1 mps 765 mmHg 84%
    23:00 +11°C° 0 mm 1 mps 765 mmHg 86%
    Show more